Preview of NWS' New Version of Forecast
This preview is not operational and should not be used for support decisions.

Regional Weather Roundup (RWR)

Issued by National Weather Service (NWS)

                            
000
ASUS46 KSEW 172010
RWRWA 

WASHINGTON REGIONAL WEATHER ROUNDUP
NATIONAL WEATHER SERVICE SEATTLE WA
100 PM PDT WED APR 17 2019

NOTE:"FAIR" INDICATES FEW OR NO CLOUDS BELOW 12,000 FEET WITH NO 
SIGNIFICANT WEATHER AND/OR OBSTRUCTIONS TO VISIBILITY.

WAZ507-509-555>559-172100-
SEATTLE, TACOMA, EVERETT, AND VICINITY
  
CITY           SKY/WX    TMP DP  RH WIND       PRES   REMARKS
EVERETT        CLOUDY    53  45  74 S10       30.31S                  
BOEING FIELD   CLOUDY    57  46  66 S14G22    30.32R                  
RENTON         CLOUDY    58  47  66 S10       30.31S                  
SEATAC AIRPORT PTSUNNY   57  47  69 S12       30.32R                  
JBLM-MCCHORD   CLOUDY    57  54  88 S12         N/A                   
PUYALLUP       CLOUDY    59  48  67 W7        30.33S                  
BREMERTON      CLOUDY    56  49  77 SW15G21   30.30S                  
JBLM-FT LEWIS  PTSUNNY   57  54  89 S12G23    30.32F                  
TACOMA NARROWS PTSUNNY   55  48  77 S9        30.33S                  
$$
 
WAZ001-503-506-510-514-515-172100-
NORTH INTERIOR
  
CITY           SKY/WX    TMP DP  RH WIND       PRES   REMARKS
BELLINGHAM     SUNNY     56  45  66 S10G22    30.29R                  
FRIDAY HARBOR  CLOUDY    58  46  64 SE10      30.30S                  
EASTSOUND      SUNNY     57  46  67 S13       30.28S                  
PORT ANGELES   MOSUNNY   51  45  79 NE6       30.28S                  
EDIZ HOOK      FAIR      52  48  87 N3        30.29R                  
PORT TOWNSEND  CLOUDY    57  50  77 E12       30.27F                  
NAS WHIDBEY    PTSUNNY   59  46  62 SE17G23   30.33S                  
ARLINGTON      CLOUDY    54  47  77 SE12      30.32S                  
BURLINGTON     MOSUNNY   61  46  59 S15G21    30.30S                  
$$
 
WAZ020-022-039-040-504-511-512-172100-
SOUTHWEST INTERIOR
  
CITY           SKY/WX    TMP DP  RH WIND       PRES   REMARKS
SHELTON        CLOUDY    58  51  78 SW12      30.29S                  
OLYMPIA        CLOUDY    53  50  89 S10       30.33S FOG              
CHEHALIS       CLOUDY    59  50  72 S12       30.33S                  
KELSO          CLOUDY    56  48  74 S9        30.36S                  
VANCOUVER      CLOUDY    57  46  66 SE3       30.36S                  
SCAPPOOSE, OR  CLOUDY    59  47  64 SE5       30.35S                  
PORTLAND, OR   CLOUDY    59  46  62 S8        30.36F                  
$$
 
WAZ021-516-517-172100-
WASHINGTON COAST
  
CITY           SKY/WX    TMP DP  RH WIND       PRES   REMARKS
FORKS          CLOUDY    54  52  93 S10       30.27S                  
HOQUIAM        CLOUDY    54  53  97 SW10      30.32S                  
ASTORIA, OR    PTSUNNY   56  49  77 S16G22    30.32F                  
$$
 
WAZ019-023-024-040-567>569-172100-
CASCADE MOUNTAINS AND COLUMBIA GORGE
  
CITY           SKY/WX    TMP DP  RH WIND       PRES   REMARKS
STAMPEDE PASS  NOT AVBL                                               
TROUTDALE, OR  CLOUDY    59  46  62 NE3       30.36F                  
HOOD RIVER, OR CLEAR     59  45  58 MISG      30.33S                  
THE DALLES, OR SUNNY     64  45  49 NW21G26   30.30S                  
$$

WAZ026-027-041>044-520-521-172100-
EAST SLOPES
  
CITY           SKY/WX    TMP DP  RH WIND       PRES   REMARKS
OMAK           SUNNY     66  27  23 SE9G17    30.11F                  
WENATCHEE      SUNNY     63  34  33 NW10G24   30.17S                  
ELLENSBURG     SUNNY     61  38  42 NW24G35   30.23F                  
YAKIMA         MOSUNNY   65  36  34 W9        30.24S                  
SUNNYSIDE ARPT MOCLDY    63  43  47 S3        30.24S                  
YAKIMA TC      FAIR      63  35  36 W8G18     30.22F                  
$$

WAZ028-034-035-172100-
COLUMBIA BASIN
  
CITY           SKY/WX    TMP DP  RH WIND       PRES   REMARKS
EPHRATA        SUNNY     64  34  32 SW13      30.18S                  
MOSES LAKE     SUNNY     65  37  35 W8        30.20S                  
PASCO          SUNNY     69  39  33 SW8       30.24S                  
RICHLAND ARPT  PTCLDY    68  40  35 W9        30.24                   
HERMISTON, OR  SUNNY     66  42  41 W20G29    30.25F                  
$$

WAZ036>038-172100-
NORTHEAST WASHINGTON
  
CITY           SKY/WX    TMP DP  RH WIND       PRES   REMARKS
SPOKANE GEIGER MOSUNNY   57  34  41 W23       30.17R                  
SPOKANE FELTS  PTSUNNY   61  35  37 SW21G28   30.17S                  
FAIRCHILD AFB  PTSUNNY   56  37  48 SW18G24   30.16R                  
COEURDALENE,ID PTSUNNY   58  38  47 SW17G28   30.17R                  
DEER PARK      MOSUNNY   61  33  35 SW17G24   30.15R                  
$$

WAZ029>033-172100-
SOUTHEAST WASHINGTON
  
CITY           SKY/WX    TMP DP  RH WIND       PRES   REMARKS
PULLMAN        CLOUDY    52  40  63 W16G24    30.25R                  
LEWISTON, ID   PTSUNNY   61  40  45 SE9       30.23R                  
WALLA WALLA    MOSUNNY   61  42  49 SW10G24   30.26S                  
PENDLETON, OR  MOSUNNY   61  43  51 W10G21    30.27S                  
$$